This is the latest recevied weather packets stored in our database for station/object KA0EGE. If no packets are shown the sender has not sent any weather packets the latest 10 day(s).
| Time | Temp. | Humidity | Pressure | Rain* | Wind** | Luminosity | Snow |
|---|---|---|---|---|---|---|---|
| 1777250671 | 23.33° C | 94% | 1015 hPa | 0 mm | - | 0 W/m² | - |
| 1777250367 | 23.33° C | 93% | 1015 hPa | 0 mm | - | 0 W/m² | - |
| 1777250062 | 23.89° C | 92% | 1014.9 hPa | 0 mm | - | 0 W/m² | - |
| 1777249759 | 23.89° C | 91% | 1014.7 hPa | 0 mm | - | 1 W/m² | - |
| 1777249455 | 23.89° C | 90% | 1014.8 hPa | 0 mm | - | 2 W/m² | - |
| 1777249152 | 23.89° C | 90% | 1014.6 hPa | 0 mm | - | 4 W/m² | - |
| 1777248848 | 23.89° C | 91% | 1014.5 hPa | 0 mm | - | 7 W/m² | - |
| 1777248545 | 23.89° C | 90% | 1014.5 hPa | 0 mm | - | 9 W/m² | - |
| 1777248242 | 23.89° C | 90% | 1014.4 hPa | 0 mm | - | 15 W/m² | - |
| 1777247936 | 24.44° C | 88% | 1014.3 hPa | 0 mm | - | 19 W/m² | - |
| 1777247631 | 25° C | 86% | 1014.2 hPa | 0 mm | - | 22 W/m² | - |
| 1777247330 | 25° C | 85% | 1014.3 hPa | 0 mm | - | 24 W/m² | - |
| 1777247027 | 25.56° C | 84% | 1014.4 hPa | 0 mm | - | 29 W/m² | - |
| 1777246724 | 25.56° C | 83% | 1014.4 hPa | 0 mm | - | 37 W/m² | - |
| 1777246419 | 25.56° C | 82% | 1014.4 hPa | 0 mm | - | 43 W/m² | - |
| 1777246117 | 25.56° C | 81% | 1014.4 hPa | 0 mm | - | 48 W/m² | - |
| 1777245815 | 25.56° C | 81% | 1014.2 hPa | 0 mm | - | 55 W/m² | - |
| 1777245513 | 26.11° C | 80% | 1014.1 hPa | 0 mm | - | 64 W/m² | - |
| 1777245208 | 26.11° C | 79% | 1014.3 hPa | 0 mm | - | 91 W/m² | - |
| 1777244904 | 26.67° C | 79% | 1014.2 hPa | 0 mm | - | 100 W/m² | - |
| 1777244600 | 26.67° C | 77% | 1014.2 hPa | 0 mm | - | 96 W/m² | - |
| 1777244296 | 26.67° C | 77% | 1014.2 hPa | 0 mm | - | 97 W/m² | - |
| 1777243994 | 26.67° C | 77% | 1014.4 hPa | 0 mm | - | 69 W/m² | - |
| 1777243691 | 26.67° C | 77% | 1014.3 hPa | 0 mm | - | 112 W/m² | - |
| 1777243388 | 26.67° C | 77% | 1014.3 hPa | 0 mm | - | 98 W/m² | - |
* Rain latest hour (hover to see other rain measurements)
** Current wind speed in m/s (hover to see current wind gust speed)